• Em Portugal
  • Lista de países
  • Para 7 dias
  • Temperatura da água
  • Mapas de satélite
  • Mapa do tempo
  • Widgets de tempo
  • user-avatar
    Iniciar Sessão

    Previsão horária em Seversk

    Hoje, 16 Outubro, Terça-feira

    Tempo Temperatura Precipitação Vento Pressão Humidade
    00:00 +16°C° 0 mm 1 m/s 764 mmHg 68%
    01:00 +16°C° 0 mm 1 m/s 764 mmHg 70%
    02:00 +15°C° 0 mm 1 m/s 764 mmHg 72%
    03:00 +15°C° 0 mm 1 m/s 764 mmHg 75%
    04:00 +15°C° 0 mm 1 m/s 764 mmHg 77%
    05:00 +15°C° 0 mm 1 m/s 764 mmHg 79%
    06:00 +14°C° 0 mm 1 m/s 764 mmHg 81%
    07:00 +15°C° 0 mm 1 m/s 764 mmHg 76%
    08:00 +16°C° 0 mm 1 m/s 765 mmHg 72%
    09:00 +18°C° 0 mm 2 m/s 765 mmHg 66%
    10:00 +19°C° 0 mm 2 m/s 765 mmHg 60%
    11:00 +21°C° 0 mm 2 m/s 765 mmHg 53%
    12:00 +24°C° 0 mm 2 m/s 765 mmHg 46%
    13:00 +24°C° 0 mm 2 m/s 764 mmHg 43%
    14:00 +25°C° 0 mm 2 m/s 764 mmHg 40%
    15:00 +25°C° 0 mm 2 m/s 764 mmHg 36%
    16:00 +24°C° 0 mm 2 m/s 764 mmHg 40%
    17:00 +21°C° 0 mm 2 m/s 764 mmHg 44%
    18:00 +20°C° 0 mm 2 m/s 764 mmHg 48%
    19:00 +20°C° 0 mm 1 m/s 764 mmHg 50%
    20:00 +19°C° 0 mm 1 m/s 764 mmHg 52%
    21:00 +19°C° 0 mm 1 m/s 764 mmHg 54%
    22:00 +18°C° 0 mm 1 m/s 764 mmHg 56%
    23:00 +18°C° 0 mm 1 m/s 764 mmHg 57%

    Amanhã, 17 Outubro, Quarta-feira

    Tempo Temperatura Precipitação Vento Pressão Humidade
    00:00 +16°C° 0 mm 1 m/s 764 mmHg 59%
    01:00 +16°C° 0 mm 1 m/s 764 mmHg 61%
    02:00 +15°C° 0 mm 1 m/s 764 mmHg 62%
    03:00 +15°C° 0 mm 1 m/s 764 mmHg 63%
    04:00 +15°C° 0 mm 1 m/s 763 mmHg 65%
    05:00 +14°C° 0 mm 1 m/s 763 mmHg 66%
    06:00 +14°C° 0 mm 1 m/s 763 mmHg 67%
    07:00 +15°C° 0 mm 1 m/s 763 mmHg 63%
    08:00 +18°C° 0 mm 1 m/s 763 mmHg 59%
    09:00 +19°C° 0 mm 1 m/s 763 mmHg 55%
    10:00 +20°C° 0 mm 1 m/s 763 mmHg 50%
    11:00 +21°C° 0 mm 2 m/s 763 mmHg 46%
    12:00 +23°C° 0 mm 2 m/s 763 mmHg 41%
    13:00 +24°C° 0 mm 2 m/s 763 mmHg 39%
    14:00 +25°C° 0 mm 2 m/s 762 mmHg 36%
    15:00 +25°C° 0 mm 2 m/s 762 mmHg 34%
    16:00 +24°C° 0 mm 2 m/s 762 mmHg 38%
    17:00 +21°C° 0 mm 2 m/s 762 mmHg 41%
    18:00 +20°C° 0 mm 2 m/s 762 mmHg 44%
    19:00 +19°C° 0 mm 2 m/s 762 mmHg 46%
    20:00 +18°C° 0 mm 2 m/s 762 mmHg 48%
    21:00 +18°C° 0 mm 2 m/s 762 mmHg 50%
    22:00 +17°C° 0 mm 2 m/s 762 mmHg 51%
    23:00 +17°C° 0 mm 2 m/s 762 mmHg 52%

    Depois de amanhã, 18 Outubro, Quinta-feira

    Tempo Temperatura Precipitação Vento Pressão Humidade
    00:00 +16°C° 0 mm 2 m/s 762 mmHg 54%
    01:00 +16°C° 0 mm 2 m/s 762 mmHg 55%
    02:00 +15°C° 0 mm 2 m/s 762 mmHg 56%
    03:00 +15°C° 0 mm 2 m/s 762 mmHg 58%
    04:00 +15°C° 0 mm 2 m/s 762 mmHg 59%
    05:00 +14°C° 0 mm 2 m/s 762 mmHg 61%
    06:00 +14°C° 0 mm 2 m/s 762 mmHg 63%
    07:00 +15°C° 0 mm 2 m/s 762 mmHg 60%
    08:00 +16°C° 0 mm 2 m/s 762 mmHg 57%
    09:00 +17°C° 0 mm 3 m/s 762 mmHg 54%
    10:00 +18°C° 0 mm 3 m/s 762 mmHg 49%
    11:00 +20°C° 0 mm 3 m/s 761 mmHg 43%
    12:00 +22°C° 0 mm 3 m/s 761 mmHg 38%
    13:00 +24°C° 0 mm 3 m/s 761 mmHg 36%
    14:00 +23°C° 0 mm 4 m/s 761 mmHg 34%
    15:00 +25°C° 0 mm 4 m/s 760 mmHg 33%
    16:00 +22°C° 0 mm 3 m/s 760 mmHg 36%
    17:00 +21°C° 0 mm 3 m/s 760 mmHg 39%
    18:00 +19°C° 0 mm 3 m/s 760 mmHg 42%
    19:00 +18°C° 0 mm 3 m/s 760 mmHg 44%
    20:00 +18°C° 0 mm 3 m/s 760 mmHg 45%
    21:00 +17°C° 0 mm 3 m/s 760 mmHg 46%
    22:00 +16°C° 0 mm 3 m/s 760 mmHg 48%
    23:00 +16°C° 0 mm 3 m/s 760 mmHg 50%

    19 Outubro, Sexta-feira

    Tempo Temperatura Precipitação Vento Pressão Humidade
    00:00 +14°C° 0 mm 3 m/s 760 mmHg 52%
    01:00 +13°C° 0 mm 3 m/s 760 mmHg 53%
    02:00 +13°C° 0 mm 3 m/s 760 mmHg 55%
    03:00 +12°C° 0 mm 3 m/s 760 mmHg 57%
    04:00 +12°C° 0 mm 3 m/s 759 mmHg 58%
    05:00 +12°C° 0 mm 3 m/s 759 mmHg 60%
    06:00 +11°C° 0 mm 3 m/s 759 mmHg 62%
    07:00 +12°C° 0 mm 3 m/s 759 mmHg 59%
    08:00 +13°C° 0 mm 4 m/s 759 mmHg 57%
    09:00 +14°C° 0 mm 4 m/s 759 mmHg 54%
    10:00 +17°C° 0 mm 4 m/s 759 mmHg 50%
    11:00 +19°C° 0 mm 4 m/s 758 mmHg 45%
    12:00 +21°C° 0 mm 4 m/s 758 mmHg 41%
    13:00 +21°C° 0 mm 4 m/s 757 mmHg 39%
    14:00 +22°C° 0 mm 4 m/s 757 mmHg 37%
    15:00 +22°C° 0 mm 4 m/s 756 mmHg 36%
    16:00 +21°C° 0 mm 4 m/s 756 mmHg 40%
    17:00 +19°C° 0 mm 3 m/s 756 mmHg 44%
    18:00 +18°C° 0 mm 3 m/s 756 mmHg 47%
    19:00 +17°C° 0 mm 3 m/s 756 mmHg 50%
    20:00 +17°C° 0 mm 3 m/s 756 mmHg 53%
    21:00 +16°C° 0 mm 3 m/s 755 mmHg 55%
    22:00 +16°C° 0 mm 3 m/s 755 mmHg 58%
    23:00 +14°C° 0 mm 3 m/s 755 mmHg 61%

    20 Outubro, Sábado

    Tempo Temperatura Precipitação Vento Pressão Humidade
    00:00 +15°C° 0 mm 2 m/s 755 mmHg 64%
    01:00 +14°C° 0 mm 2 m/s 754 mmHg 68%
    02:00 +14°C° 0 mm 2 m/s 754 mmHg 71%
    03:00 +14°C° 0 mm 2 m/s 754 mmHg 74%
    04:00 +14°C° 0 mm 2 m/s 754 mmHg 76%
    05:00 +13°C° 0 mm 2 m/s 754 mmHg 79%
    06:00 +13°C° 0 mm 1 m/s 754 mmHg 81%
    07:00 +14°C° 0 mm 1 m/s 754 mmHg 79%
    08:00 +14°C° 0 mm 1 m/s 754 mmHg 77%
    09:00 +15°C° 0 mm 1 m/s 754 mmHg 75%
    10:00 +16°C° 0 mm 1 m/s 754 mmHg 70%
    11:00 +19°C° 0 mm 1 m/s 754 mmHg 65%
    12:00 +20°C° 0 mm 1 m/s 753 mmHg 60%
    13:00 +21°C° 0 mm 1 m/s 753 mmHg 57%
    14:00 +21°C° 0 mm 1 m/s 753 mmHg 54%
    15:00 +22°C° 0 mm 1 m/s 753 mmHg 51%
    16:00 +21°C° 0 mm 1 m/s 753 mmHg 55%
    17:00 +20°C° 0 mm 1 m/s 753 mmHg 59%
    18:00 +19°C° 0 mm 1 m/s 753 mmHg 62%
    19:00 +18°C° 0 mm 1 m/s 753 mmHg 66%
    20:00 +18°C° 0 mm 1 m/s 753 mmHg 70%
    21:00 +16°C° 0 mm 1 m/s 753 mmHg 73%
    22:00 +16°C° 0 mm 1 m/s 753 mmHg 76%
    23:00 +15°C° 0 mm 1 m/s 753 mmHg 79%

    21 Outubro, Domingo

    Tempo Temperatura Precipitação Vento Pressão Humidade
    00:00 +15°C° 0 mm 1 m/s 753 mmHg 81%
    01:00 +15°C° 0 mm 1 m/s 753 mmHg 83%
    02:00 +14°C° 0 mm 1 m/s 753 mmHg 84%
    03:00 +14°C° 0 mm 1 m/s 753 mmHg 86%
    04:00 +14°C° 0 mm 1 m/s 753 mmHg 87%
    05:00 +13°C° 0 mm 1 m/s 753 mmHg 88%
    06:00 +13°C° 0 mm 1 m/s 753 mmHg 90%
    07:00 +14°C° 0 mm 1 m/s 753 mmHg 86%
    08:00 +15°C° 0 mm 1 m/s 753 mmHg 83%
    09:00 +14°C° 0 mm 0 m/s 754 mmHg 80%
    10:00 +16°C° 0 mm 1 m/s 754 mmHg 73%
    11:00 +19°C° 0 mm 1 m/s 754 mmHg 67%
    12:00 +19°C° 0 mm 2 m/s 754 mmHg 61%
    13:00 +19°C° 0.3 mm 2 m/s 754 mmHg 59%
    14:00 +19°C° 0.3 mm 3 m/s 753 mmHg 57%
    15:00 +19°C° 0.3 mm 4 m/s 753 mmHg 55%
    16:00 +18°C° 0.1 mm 4 m/s 754 mmHg 60%
    17:00 +17°C° 0.1 mm 4 m/s 754 mmHg 65%
    18:00 +15°C° 0.1 mm 4 m/s 754 mmHg 70%
    19:00 +14°C° 0 mm 4 m/s 754 mmHg 74%
    20:00 +13°C° 0 mm 4 m/s 754 mmHg 78%
    21:00 +12°C° 0 mm 4 m/s 755 mmHg 83%
    22:00 +12°C° 0 mm 4 m/s 755 mmHg 84%
    23:00 +11°C° 0 mm 4 m/s 755 mmHg 86%
    Mostrar mais